This demonstration page uses our WeatherBlox Daily Observations layout. Learn more.

Left ArrowRight Arrow

Hourly Observations for July 15, 2015

Temp ( °F °C ) Dew Point ( °F °C ) Humidity (%) Winds ( mph kmh ) Pressure ( in mb ) Visibility ( mi km ) Precip ( " mm )
12:51 am 00:51 Mostly Cloudy 81 27.2 55 12.8 41 41 NW 22 35 29.77 1008 10 16.0934 N/A
1:51 am 01:51 Mostly Cloudy with Nearby Thunderstorms 81 27.2 52 11.1 37 37 WNW 21 33 29.8 1009 10 16.0934 N/A
2:01 am 02:01 Mostly Cloudy with Thunderstorms 79 26.1 55 12.8 44 44 W 26 43 30.19 1022 10 16.0934 N/A
2:49 am 02:49 Mostly Cloudy with Nearby Thunderstorms 77 25 54 12 44 44 N 13 20 29.8 1009 10 16.0934 N/A
2:51 am 02:51 Mostly Cloudy with Nearby Thunderstorms 76 24.4 56 13.3 50 50 N 7 11 29.82 1010 10 16.0934 N/A
3:07 am 03:07 Partly Cloudy with Light Thunderstorms 76 24.4 57 13.9 52 52 N N/A 29.83 1010 10 16.0934 N/A
3:26 am 03:26 Partly Cloudy with Nearby Thunderstorms 64 17.8 63 17.2 96 96 undefined N/A 29.63 1004 10 16.0934 N/A
3:37 am 03:37 Mostly Cloudy with Light Rain 73 22.8 59 15 62 62 W 8 13 29.83 1010 10 16.0934 N/A
3:51 am 03:51 Partly Cloudy 73 22.8 59 15 62 62 SW 8 13 29.83 1010 10 16.0934 N/A
4:37 am 04:37 Mostly Clear with Nearby Thunderstorms 73 23 57 14 57 57 SSE 3 6 29.85 1011 10 16.0934 N/A
4:51 am 04:51 Mostly Cloudy with Nearby Thunderstorms 72 22.2 60 15.6 66 66 E 6 9 29.86 1011 10 16.0934 N/A
5:03 am 05:03 Mostly Cloudy 73 22.8 60 15.6 64 64 NE 5 7 29.85 1011 10 16.0934 N/A
5:51 am 05:51 Mostly Sunny 73 22.8 60 15.6 64 64 ENE 5 7 29.87 1012 10 16.0934 N/A
6:51 am 06:51 Mostly Cloudy with Light Rain 73 22.8 61 16.1 66 66 SE 10 17 29.9 1013 10 16.0934 N/A
7:51 am 07:51 Sunny 75 23.9 60 15.6 60 60 SE 7 11 29.91 1013 10 16.0934 N/A
8:51 am 08:51 Sunny 79 26.1 59 15 50 50 SE 8 13 29.91 1013 10 16.0934 N/A
9:51 am 09:51 Sunny 81 27.2 58 14.4 45 45 VRB 5 7 29.9 1013 10 16.0934 N/A
10:51 am 10:51 Sunny 84 28.9 57 13.9 40 40 N N/A 29.9 1013 10 16.0934 N/A
11:51 am 11:51 Sunny 84 28.9 59 15 43 43 WNW 9 15 29.88 1012 10 16.0934 N/A
12:51 pm 12:51 Sunny 93 33.9 68 20 44 44 NNW 12 19 29.65 1004 10 16.0934 0.39 9.906
1:51 pm 13:51 Sunny 93 33.9 53 11.7 26 26 NW 9 15 29.8 1009 10 16.0934 N/A
2:51 pm 14:51 Sunny 94 34.4 52 11.1 24 24 N 8 13 29.79 1009 10 16.0934 N/A
3:51 pm 15:51 Sunny 92 33.3 53 11.7 27 27 NW 7 11 29.78 1008 10 16.0934 N/A
4:51 pm 16:51 Sunny 92 33.3 53 11.7 27 27 W 6 9 29.76 1008 10 16.0934 N/A
5:51 pm 17:51 Sunny 71 21.7 36 2.2 28 28 W 10 17 29.85 1011 10 16.0934 N/A
6:51 pm 18:51 Sunny 90 32.2 53 11.7 28 28 W 7 11 29.76 1008 10 16.0934 N/A
7:51 pm 19:51 Mostly Clear 85 29.4 57 13.9 39 39 N N/A 29.8 1009 10 16.0934 N/A
8:51 pm 20:51 Clear 86 30 53 11.7 32 32 NE 20 31 29.81 1010 10 16.0934 N/A
9:01 pm 21:01 Clear with Nearby Thunderstorms 86 30 52 11.1 31 31 NE 21 33 29.71 1006 10 16.0934 N/A
9:37 pm 21:37 Clear 83 28.3 53 11.7 36 36 NE 21 33 29.77 1008 10 16.0934 N/A
9:46 pm 21:46 Mostly Clear with Nearby Thunderstorms 82 28 54 12 37 37 NNE 20 31 29.77 1008 10 16.0934 N/A
9:51 pm 21:51 Partly Cloudy with Nearby Thunderstorms 83 28.3 52 11.1 34 34 NE 20 31 29.83 1010 10 16.0934 N/A
10:21 pm 22:21 Cloudy with Light Thunderstorms 82 27.8 57 13.9 42 42 WNW 12 19 29.8 1009 10 16.0934 N/A
10:46 pm 22:46 Cloudy with Heavy Thunderstorms 70 21 63 17 78 78 WNW 25 41 29.91 1013 1.75 2.816345 0.1 2.54
10:51 pm 22:51 Cloudy with Heavy Thunderstorms 70 21.1 62 16.7 76 76 WNW 21 33 29.91 1013 1.75 2.816345 0.17 4.318
10:56 pm 22:56 Mostly Cloudy with Heavy Thunderstorms 70 21.1 63 17.2 79 79 WNW 21 33 29.91 1013 3 4.82802 0.02 0.508
11:08 pm 23:08 Mostly Cloudy with Nearby Thunderstorms 69 20.6 63 17.2 81 81 NW 20 31 29.91 1013 10 16.0934 0.03 0.762
11:16 pm 23:16 Partly Cloudy with Light Rain 69 20.6 63 17.2 81 81 NW 17 28 29.91 1013 10 16.0934 0.03 0.762
11:51 pm 23:51 Mostly Cloudy 70 21.1 63 17.2 79 79 WNW 18 30 29.91 1013 10 16.0934 0.03 0.762

Powered by AerisWeather